Regional Weather Roundup
Issued by NWS

Home | Current Version | Previous Version | Graphics & Text | Print | Product List | Glossary On
Versions: 1 2 3 4 5 6 7 8 9 10 11 12 13 14 15 16 17 18 19 20 21 22 23 24 25 26 27 28 29 30 31 32 33 34 35 36 37 38 39 40 41 42 43 44 45 46 47 48 49 50
000
ASUS43 KFSD 212310
RWRSD

WEATHER ROUNDUP FOR SOUTH DAKOTA
NATIONAL WEATHER SERVICE SIOUX FALLS SD
600 PM CDT SAT APR 21 2018

NOTE: "FAIR" INDICATES FEW OR NO CLOUDS BELOW 12,000 FEET WITH NO
SIGNIFICANT WEATHER AND/OR OBSTRUCTIONS TO VISIBILITY.


SDZ001>005-009-010-012>017-220000-
NORTHWEST AND NORTH CENTRAL SOUTH DAKOTA

CITY           SKY/WX    TMP DP  RH WIND       PRES   REMARKS
BUFFALO          N/A     60  35  39 SE25G31   30.00F
FAITH            N/A     51  39  63 S23       30.15F
MOBRIDGE       PTSUNNY   54  38  54 S22G30    30.19S
$$

SDZ012>016-024>037-041>051-057-063-072>074-220000-
SOUTHWEST AND SOUTH CENTRAL SOUTH DAKOTA

CITY           SKY/WX    TMP DP  RH WIND       PRES   REMARKS
RAPID CTY ARPT PTSUNNY   50  37  61 S21G29    30.14S
PIERRE         CLOUDY    50  36  58 S17       30.24S
CUSTER         MOSUNNY   46  35  65 S7        30.11F
ELLSWORTH AFB  MOSUNNY  N/A N/A N/A S28       30.13S
PHILIP         CLOUDY    49  39  68 S16       30.21F
PINE RIDGE     CLOUDY    46  39  76 SE9       30.19F
SPEARFISH      FAIR      59  37  44 NE9       30.05F
WINNER         CLOUDY    48  37  65 E7        30.25F
$$

SDZ004>011-016>023-039-040-220000-
NORTHEAST SOUTH DAKOTA

CITY           SKY/WX    TMP DP  RH WIND       PRES   REMARKS
ABERDEEN       MOSUNNY   58  34  40 S14       30.26F
WATERTOWN      PTSUNNY   52  35  52 S10       30.28F
BROOKINGS      CLOUDY    49  33  54 SE9       30.30F
SISSETON         N/A     58  38  47 SW7       30.27F
$$

SDZ017-020-022-023-036>040-048>070-220000-
SOUTHEAST SOUTH DAKOTA

CITY           SKY/WX    TMP DP  RH WIND       PRES   REMARKS
SIOUX FALLS    CLOUDY    51  34  52 E15       30.28F
HURON          CLOUDY    53  35  50 SE13      30.28F
CHAMBERLAIN    CLOUDY    50  42  72 E5        30.26S
MITCHELL       CLOUDY    47  37  68 E6        30.29S
YANKTON        PTSUNNY   53  32  44 E8        30.27S
$$

ABBREVIATIONS USED IN REMARKS
   TC - TEMPERATURE IN CELSIUS
  WCI - WIND CHILL INDEX
   HX - HEAT INDEX
  VSB - VISIBILITY





USA.gov is the U.S. government's official web portal to all federal, state and local government web resources and services.